Regional Weather Roundup
Issued by NWS Spokane, WA

Home | Current Version | Previous Version | Text Only | Print | Product List | Glossary On
Versions: 1 2 3 4 5 6 7 8 9 10 11 12 13 14 15 16 17 18 19 20 21 22 23 24 25 26 27 28 29 30 31 32 33 34 35 36 37 38 39 40 41 42 43 44 45 46 47 48 49 50
000
NZUS01 KOTX 020710
RWROTX
EASTERN WASHINGTON/NORTHERN IDAHO ROUNDUP
NATIONAL WEATHER SERVICE, SPOKANE WA
1200 AM PDT WED SEP 02 2015

Note: "fair" indicated few or no clouds below 12,000 feet with no
significant weather and/or obstructions to visibility.

...NORTHEAST WASHINGTON AND NORTHERN IDAHO PANHANDLE...

CITY           SKY/WX    TMP DP  RH WIND       PRES   REMARKS
SPOKANE INTL   CLOUDY    62  44  51 S8        29.74S
SPOKANE DOWNTO CLOUDY    62  46  55 NE5       29.74S
COEUR D ALENE  CLOUDY    63  45  51 S5        29.74S
DEER PARK      CLOUDY    59  45  59 S5        29.73S
SANDPOINT      CLOUDY    54  46  76 W5        29.73S
BONNERS FERRY  FAIR      57  48  72 CALM      29.72F

...SOUTHEAST WASHINGTON AND SOUTHERN IDAHO PANHANDLE...

CITY           SKY/WX    TMP DP  RH WIND       PRES   REMARKS
WALLA WALLA    CLOUDY    69  45  41 S9        29.78S
PULLMAN/MOSCOW CLOUDY    64  42  44 SW12      29.81R
LEWISTON       CLOUDY    67  37  33 S6        29.73S
LOWELL           N/A     57  53  86 CALM      29.76S

...COLUMBIA BASIN...

CITY           SKY/WX    TMP DP  RH WIND       PRES   REMARKS
EPHRATA        CLOUDY    68  47  46 W7        29.69S
MOSES LAKE     CLOUDY    67  49  52 SW8       29.71R
TRI CITIES     CLOUDY    69  49  48 W6        29.73F
HERMISTON      CLOUDY    67  49  52 SW8       29.75F
PENDLETON      CLOUDY    66  46  48 W14       29.78F

...EAST SLOPES CASCADES...

CITY           SKY/WX    TMP DP  RH WIND       PRES   REMARKS
THE DALLES     CLOUDY    67  54  63 NW15G26   29.75F
YAKIMA         CLOUDY    68  48  48 VRB5      29.73S
ELLENSBURG     CLOUDY    60  45  57 NW17G24   29.75S
WENATCHEE      CLOUDY    67  46  47 CALM      29.70F
OMAK           CLOUDY    66  44  45 SE7       29.65F

...SOUTHERN BRITISH COLUMBIA...

CITY           SKY/WX    TMP DP  RH WIND       PRES   REMARKS
PENTICTON      MOCLDY    55  48  76 N3        29.62F
CRANBROOK      CLOUDY    54  43  66 S8        29.72F

...WESTERN MONTANA...

CITY           SKY/WX    TMP DP  RH WIND       PRES   REMARKS
MISSOULA       PTCLDY    60  39  45 SE3       29.79R

...NEIGHBORING CITIES...

CITY           SKY/WX    TMP DP  RH WIND       PRES   REMARKS
SEATTLE        CLOUDY    59  54  83 S10       29.81S
CALGARY        MOCLDY    57  36  44 SW7       29.62F



USA.gov is the U.S. government's official web portal to all federal, state and local government web resources and services.